When you browse on this site, cookies collect data to enhance your experience and personalize the content and advertising you see.
Visit our Privacy Policy to learn more. By continuing to use the site, you agree to this use of cookies and data.
  • In Schweiz
  • Länderverzeichnis
  • Für 7 Tage
  • Wassertemperatur
  • Wetterkarte
  • Widgets
  • user-avatar
    Anmelden

    Stündliche Wetter Paiporta

    Heute, 17 September, Dienstag

    Zeit Temperatur Niederschläge Wind Luftdruck Luftfeuchtigkeit
    00:00 +23°C° 0 mm 1 m/S 761 mmHg 91%
    01:00 +23°C° 0 mm 1 m/S 761 mmHg 91%
    02:00 +23°C° 0 mm 1 m/S 761 mmHg 91%
    03:00 +21°C° 0 mm 0 m/S 760 mmHg 91%
    04:00 +21°C° 0 mm 0 m/S 760 mmHg 90%
    05:00 +21°C° 0 mm 0 m/S 761 mmHg 90%
    06:00 +21°C° 0 mm 0 m/S 761 mmHg 90%
    07:00 +22°C° 0 mm 0 m/S 761 mmHg 82%
    08:00 +24°C° 0 mm 0 m/S 761 mmHg 74%
    09:00 +26°C° 0 mm 0 m/S 761 mmHg 66%
    10:00 +29°C° 0 mm 1 m/S 761 mmHg 61%
    11:00 +30°C° 0 mm 2 m/S 760 mmHg 56%
    12:00 +31°C° 0 mm 3 m/S 760 mmHg 51%
    13:00 +31°C° 0 mm 3 m/S 760 mmHg 53%
    14:00 +31°C° 0 mm 3 m/S 759 mmHg 55%
    15:00 +31°C° 0 mm 3 m/S 759 mmHg 58%
    16:00 +29°C° 0.1 mm 3 m/S 758 mmHg 65%
    17:00 +28°C° 0.1 mm 2 m/S 758 mmHg 73%
    18:00 +26°C° 0.1 mm 2 m/S 758 mmHg 80%
    19:00 +26°C° 0.2 mm 2 m/S 759 mmHg 81%
    20:00 +25°C° 0.2 mm 2 m/S 759 mmHg 81%
    21:00 +25°C° 0.2 mm 2 m/S 760 mmHg 82%
    22:00 +25°C° 0.3 mm 2 m/S 760 mmHg 77%
    23:00 +24°C° 0.3 mm 2 m/S 759 mmHg 72%

    Morgen, 18 September, Mittwoch

    Zeit Temperatur Niederschläge Wind Luftdruck Luftfeuchtigkeit
    00:00 +24°C° 0.3 mm 2 m/S 759 mmHg 68%
    01:00 +24°C° 0 mm 2 m/S 759 mmHg 66%
    02:00 +24°C° 0 mm 2 m/S 759 mmHg 65%
    03:00 +24°C° 0 mm 2 m/S 758 mmHg 64%
    04:00 +24°C° 0 mm 2 m/S 758 mmHg 64%
    05:00 +24°C° 0 mm 2 m/S 759 mmHg 63%
    06:00 +24°C° 0 mm 2 m/S 759 mmHg 62%
    07:00 +26°C° 0 mm 2 m/S 759 mmHg 56%
    08:00 +28°C° 0 mm 2 m/S 759 mmHg 50%
    09:00 +30°C° 0 mm 1 m/S 759 mmHg 43%
    10:00 +31°C° 0 mm 2 m/S 759 mmHg 40%
    11:00 +34°C° 0 mm 2 m/S 759 mmHg 37%
    12:00 +35°C° 0 mm 2 m/S 759 mmHg 33%
    13:00 +34°C° 0 mm 3 m/S 759 mmHg 36%
    14:00 +34°C° 0 mm 3 m/S 758 mmHg 39%
    15:00 +34°C° 0 mm 4 m/S 758 mmHg 42%
    16:00 +32°C° 0 mm 4 m/S 758 mmHg 50%
    17:00 +29°C° 0 mm 3 m/S 758 mmHg 59%
    18:00 +28°C° 0 mm 3 m/S 758 mmHg 67%
    19:00 +27°C° 0 mm 3 m/S 759 mmHg 70%
    20:00 +26°C° 0 mm 2 m/S 759 mmHg 72%
    21:00 +25°C° 0 mm 2 m/S 760 mmHg 75%
    22:00 +25°C° 0 mm 1 m/S 760 mmHg 74%
    23:00 +25°C° 0 mm 1 m/S 760 mmHg 74%

    übermorgen, 19 September, Donnerstag

    Zeit Temperatur Niederschläge Wind Luftdruck Luftfeuchtigkeit
    00:00 +23°C° 0 mm 0 m/S 759 mmHg 74%
    01:00 +22°C° 0 mm 0 m/S 759 mmHg 75%
    02:00 +22°C° 0 mm 0 m/S 759 mmHg 76%
    03:00 +22°C° 0 mm 0 m/S 759 mmHg 77%
    04:00 +21°C° 0 mm 0 m/S 759 mmHg 77%
    05:00 +23°C° 0 mm 1 m/S 759 mmHg 78%
    06:00 +23°C° 0 mm 1 m/S 760 mmHg 79%
    07:00 +24°C° 0 mm 1 m/S 760 mmHg 73%
    08:00 +26°C° 0 mm 1 m/S 760 mmHg 67%
    09:00 +27°C° 0 mm 2 m/S 761 mmHg 61%
    10:00 +28°C° 0 mm 2 m/S 761 mmHg 59%
    11:00 +29°C° 0 mm 3 m/S 760 mmHg 57%
    12:00 +30°C° 0 mm 4 m/S 760 mmHg 55%
    13:00 +30°C° 0 mm 4 m/S 760 mmHg 58%
    14:00 +30°C° 0 mm 4 m/S 760 mmHg 60%
    15:00 +29°C° 0 mm 4 m/S 760 mmHg 63%
    16:00 +28°C° 0.2 mm 4 m/S 760 mmHg 69%
    17:00 +27°C° 0.2 mm 3 m/S 760 mmHg 76%
    18:00 +25°C° 0.2 mm 3 m/S 760 mmHg 82%
    19:00 +25°C° 0 mm 2 m/S 760 mmHg 85%
    20:00 +25°C° 0 mm 2 m/S 761 mmHg 88%
    21:00 +24°C° 0 mm 1 m/S 762 mmHg 91%
    22:00 +24°C° 0 mm 1 m/S 761 mmHg 90%
    23:00 +24°C° 0 mm 1 m/S 761 mmHg 90%

    20 September, Freitag

    Zeit Temperatur Niederschläge Wind Luftdruck Luftfeuchtigkeit
    00:00 +24°C° 0 mm 2 m/S 761 mmHg 89%
    01:00 +24°C° 0 mm 2 m/S 761 mmHg 90%
    02:00 +24°C° 0 mm 2 m/S 761 mmHg 91%
    03:00 +23°C° 0 mm 2 m/S 761 mmHg 91%
    04:00 +23°C° 0 mm 2 m/S 761 mmHg 91%
    05:00 +23°C° 0 mm 2 m/S 761 mmHg 91%
    06:00 +23°C° 0 mm 2 m/S 760 mmHg 90%
    07:00 +24°C° 0 mm 3 m/S 761 mmHg 85%
    08:00 +25°C° 0 mm 3 m/S 761 mmHg 80%
    09:00 +26°C° 0 mm 4 m/S 761 mmHg 75%
    10:00 +26°C° 0.1 mm 4 m/S 761 mmHg 72%
    11:00 +27°C° 0.1 mm 4 m/S 761 mmHg 69%
    12:00 +28°C° 0.1 mm 5 m/S 761 mmHg 66%
    13:00 +27°C° 0 mm 5 m/S 761 mmHg 67%
    14:00 +27°C° 0 mm 5 m/S 760 mmHg 67%
    15:00 +27°C° 0 mm 5 m/S 760 mmHg 68%
    16:00 +26°C° 0 mm 4 m/S 760 mmHg 74%
    17:00 +25°C° 0 mm 4 m/S 760 mmHg 79%
    18:00 +24°C° 0 mm 3 m/S 760 mmHg 85%
    19:00 +24°C° 0.1 mm 3 m/S 760 mmHg 87%
    20:00 +22°C° 0.1 mm 3 m/S 760 mmHg 90%
    21:00 +22°C° 0.1 mm 3 m/S 760 mmHg 92%
    22:00 +22°C° 0.3 mm 3 m/S 760 mmHg 92%
    23:00 +22°C° 0.3 mm 3 m/S 760 mmHg 91%

    21 September, Samstag

    Zeit Temperatur Niederschläge Wind Luftdruck Luftfeuchtigkeit
    00:00 +22°C° 0.3 mm 3 m/S 760 mmHg 91%
    01:00 +22°C° 0.7 mm 3 m/S 760 mmHg 91%
    02:00 +22°C° 0.7 mm 3 m/S 759 mmHg 92%
    03:00 +21°C° 0.7 mm 3 m/S 759 mmHg 92%
    04:00 +22°C° 0.6 mm 3 m/S 759 mmHg 92%
    05:00 +22°C° 0.6 mm 3 m/S 759 mmHg 92%
    06:00 +22°C° 0.6 mm 3 m/S 759 mmHg 92%
    07:00 +23°C° 1.3 mm 2 m/S 759 mmHg 90%
    08:00 +24°C° 1.3 mm 2 m/S 759 mmHg 88%
    09:00 +24°C° 1.3 mm 2 m/S 760 mmHg 86%
    10:00 +26°C° 1.4 mm 2 m/S 759 mmHg 79%
    11:00 +27°C° 1.4 mm 2 m/S 759 mmHg 72%
    12:00 +28°C° 1.4 mm 2 m/S 759 mmHg 65%
    13:00 +29°C° 0.4 mm 2 m/S 759 mmHg 64%
    14:00 +29°C° 0.4 mm 3 m/S 758 mmHg 64%
    15:00 +29°C° 0.4 mm 3 m/S 758 mmHg 63%
    16:00 +28°C° 0.5 mm 2 m/S 758 mmHg 71%
    17:00 +27°C° 0.5 mm 2 m/S 758 mmHg 78%
    18:00 +25°C° 0.5 mm 1 m/S 758 mmHg 86%
    19:00 +25°C° 0 mm 1 m/S 758 mmHg 88%
    20:00 +25°C° 0 mm 1 m/S 759 mmHg 90%
    21:00 +24°C° 0 mm 1 m/S 759 mmHg 93%
    22:00 +24°C° 0.5 mm 1 m/S 759 mmHg 94%
    23:00 +24°C° 0.5 mm 1 m/S 759 mmHg 95%

    22 September, Sonntag

    Zeit Temperatur Niederschläge Wind Luftdruck Luftfeuchtigkeit
    00:00 +22°C° 0.5 mm 0 m/S 759 mmHg 96%
    01:00 +24°C° 0.4 mm 1 m/S 759 mmHg 94%
    02:00 +24°C° 0.4 mm 1 m/S 759 mmHg 91%
    03:00 +24°C° 0.4 mm 1 m/S 759 mmHg 89%
    04:00 +24°C° 0.3 mm 1 m/S 759 mmHg 85%
    05:00 +24°C° 0.3 mm 1 m/S 759 mmHg 82%
    06:00 +24°C° 0.3 mm 1 m/S 759 mmHg 78%
    07:00 +25°C° 0.3 mm 1 m/S 759 mmHg 74%
    08:00 +26°C° 0.3 mm 1 m/S 759 mmHg 69%
    09:00 +27°C° 0.3 mm 1 m/S 760 mmHg 65%
    10:00 +28°C° 0.1 mm 1 m/S 760 mmHg 60%
    11:00 +29°C° 0.1 mm 2 m/S 760 mmHg 55%
    12:00 +30°C° 0.1 mm 2 m/S 760 mmHg 50%
    13:00 +30°C° 0.2 mm 2 m/S 760 mmHg 51%
    14:00 +30°C° 0.2 mm 3 m/S 759 mmHg 52%
    15:00 +30°C° 0.2 mm 3 m/S 759 mmHg 54%
    16:00 +29°C° 0.1 mm 3 m/S 759 mmHg 59%
    17:00 +28°C° 0.1 mm 2 m/S 760 mmHg 64%
    18:00 +26°C° 0.1 mm 1 m/S 760 mmHg 69%
    19:00 +26°C° 0 mm 1 m/S 761 mmHg 72%
    20:00 +25°C° 0 mm 1 m/S 761 mmHg 75%
    21:00 +25°C° 0 mm 1 m/S 762 mmHg 78%
    22:00 +22°C° 0 mm 0 m/S 762 mmHg 79%
    23:00 +22°C° 0 mm 0 m/S 762 mmHg 79%
    Mehr zeigen